7 * 24
多渠道服务支持
STARLINK-35489是美国星链(Starlink)项目的卫星,于2025年10月3日发射升空,属于SpaceX打造的低轨卫星互联网星座组成部分。星链系统旨在为全球提供高速低延迟宽带网络服务,该卫星入轨后,将进一步扩充星座规模,提升全球网络覆盖能力,推动星链整体服务能力升级。
美国
(US)
| 数据来源 | 国际轨道数据 |
| 星历时间: | 2026-09-11T10:56:31+0800 1天前 查看轨道信息 |
| 半长轴: | 6840.804km |
| 偏心率: | 0.0001305 |
| 轨道倾角: | 53.158° |
| 近地点辐角 | 70.909° |
| 升交点赤经 | 149.501° |
| 平近点角 | 289.205° |
| 近地点: | 461.774km |
| 远地点: | 463.56km |
| 周期: | 93.847分钟 |
| 每日圈数: | 15.344125 |